This is the latest recevied weather packets stored in our database for station/object K7FED. If no packets are shown the sender has not sent any weather packets the latest 10 day(s).
| Time | Temp. | Humidity | Pressure | Rain* | Wind** | Luminosity | Snow |
|---|---|---|---|---|---|---|---|
| 1777401144 | 18.89° C | 54% | 1018.5 hPa | 0 mm | - | 55 W/m² | - |
| 1777400844 | 18.89° C | 56% | 1018.5 hPa | 0 mm | - | 67 W/m² | - |
| 1777400544 | 18.89° C | 56% | 1018.6 hPa | 0 mm | - | 194 W/m² | - |
| 1777400243 | 18.33° C | 56% | 1018.6 hPa | 0 mm | - | 91 W/m² | - |
| 1777399944 | 18.33° C | 54% | 1018.6 hPa | 0 mm | - | 132 W/m² | - |
| 1777399643 | 18.33° C | 56% | 1018.6 hPa | 0 mm | - | 60 W/m² | - |
| 1777399344 | 17.78° C | 55% | 1018.5 hPa | 0 mm | - | 147 W/m² | - |
| 1777399043 | 17.78° C | 56% | 1018.5 hPa | 0 mm | - | 333 W/m² | - |
| 1777398744 | 17.78° C | 57% | 1018.5 hPa | 0 mm | - | 205 W/m² | - |
| 1777398443 | 17.78° C | 57% | 1018.5 hPa | 0 mm | - | 200 W/m² | - |
| 1777398143 | 17.78° C | 58% | 1018.5 hPa | 0 mm | - | 212 W/m² | - |
| 1777397844 | 17.78° C | 58% | 1018.5 hPa | 0 mm | - | 70 W/m² | - |
| 1777397544 | 17.78° C | 58% | 1018.5 hPa | 0 mm | - | 314 W/m² | - |
| 1777397244 | 17.78° C | 58% | 1018.4 hPa | 0 mm | - | 145 W/m² | - |
| 1777396941 | 17.22° C | 58% | 1018.4 hPa | 0 mm | - | 67 W/m² | - |
| 1777396641 | 17.22° C | 59% | 1018.5 hPa | 0 mm | - | 100 W/m² | - |
| 1777396342 | 16.67° C | 60% | 1018.4 hPa | 0 mm | - | 46 W/m² | - |
| 1777396041 | 16.67° C | 59% | 1018.5 hPa | 0 mm | - | 45 W/m² | - |
| 1777395742 | 16.67° C | 60% | 1018.5 hPa | 0 mm | - | 44 W/m² | - |
| 1777395441 | 16.67° C | 60% | 1018.4 hPa | 0 mm | - | 44 W/m² | - |
| 1777395142 | 16.11° C | 64% | 1018.4 hPa | 0 mm | - | 46 W/m² | - |
| 1777394841 | 16.11° C | 64% | 1018.4 hPa | 0 mm | - | 43 W/m² | - |
| 1777394541 | 15.56° C | 66% | 1018.4 hPa | 0 mm | - | 43 W/m² | - |
| 1777394241 | 15.56° C | 66% | 1018.4 hPa | 0 mm | - | 41 W/m² | - |
| 1777393941 | 15.56° C | 67% | 1018.3 hPa | 0 mm | - | 66 W/m² | - |
* Rain latest hour (hover to see other rain measurements)
** Current wind speed in m/s (hover to see current wind gust speed)